TimeMDT,TemperatureF,Dew PointF,Humidity,Sea Level PressureIn,VisibilityMPH,Wind Direction,Wind SpeedMPH,Gust SpeedMPH,PrecipitationIn,Events,Conditions,WindDirDegrees,DateUTC
12:55 AM,28.0,19.9,72,30.23,10.0,West,4.6,-,N/A,,Clear,280,2012-10-07 06:55:00
1:55 AM,28.0,21.0,75,30.23,10.0,WNW,8.1,-,N/A,,Clear,300,2012-10-07 07:55:00
2:55 AM,26.1,19.9,78,30.20,10.0,WNW,5.8,-,N/A,,Clear,300,2012-10-07 08:55:00
3:55 AM,25.0,21.0,85,30.18,10.0,WNW,6.9,-,N/A,,Clear,290,2012-10-07 09:55:00
4:55 AM,25.0,21.0,85,30.16,10.0,West,6.9,-,N/A,,Clear,280,2012-10-07 10:55:00
5:55 AM,25.0,21.0,85,30.15,10.0,West,8.1,-,N/A,,Clear,270,2012-10-07 11:55:00
6:55 AM,24.1,19.9,84,30.14,10.0,West,6.9,-,N/A,,Clear,280,2012-10-07 12:55:00
7:55 AM,28.9,23.0,78,30.13,10.0,West,9.2,-,N/A,,Clear,270,2012-10-07 13:55:00
8:55 AM,37.0,25.0,62,30.12,10.0,West,9.2,-,N/A,,Clear,270,2012-10-07 14:55:00
9:55 AM,46.9,24.1,41,30.09,10.0,West,11.5,-,N/A,,Clear,260,2012-10-07 15:55:00
10:55 AM,54.0,27.0,35,30.05,10.0,West,17.3,25.3,N/A,,Clear,270,2012-10-07 16:55:00
11:55 AM,55.9,28.0,34,30.03,10.0,West,16.1,23.0,N/A,,Clear,280,2012-10-07 17:55:00
12:55 PM,60.1,30.0,32,29.98,10.0,WNW,18.4,29.9,N/A,,Partly Cloudy,290,2012-10-07 18:55:00
1:55 PM,61.0,30.0,31,29.95,10.0,WNW,19.6,27.6,N/A,,Mostly Cloudy,300,2012-10-07 19:55:00
2:55 PM,62.1,28.9,29,29.93,10.0,WNW,16.1,26.5,N/A,,Mostly Cloudy,300,2012-10-07 20:55:00
3:55 PM,62.1,30.0,30,29.92,10.0,WNW,19.6,27.6,N/A,,Mostly Cloudy,300,2012-10-07 21:55:00
4:55 PM,61.0,28.9,30,29.91,10.0,NW,12.7,-,N/A,,Mostly Cloudy,310,2012-10-07 22:55:00
5:55 PM,57.0,28.9,34,29.91,10.0,WNW,6.9,-,N/A,,Partly Cloudy,300,2012-10-07 23:55:00
6:55 PM,50.0,28.0,43,29.92,10.0,WNW,6.9,-,N/A,,Clear,300,2012-10-08 00:55:00
7:55 PM,46.0,27.0,47,29.91,10.0,West,5.8,-,N/A,,Clear,260,2012-10-08 01:55:00
8:55 PM,45.0,26.1,48,29.91,10.0,WNW,6.9,-,N/A,,Scattered Clouds,290,2012-10-08 02:55:00
9:55 PM,45.0,26.1,48,29.88,10.0,WNW,9.2,-,N/A,,Clear,290,2012-10-08 03:55:00
10:55 PM,41.0,26.1,55,29.86,10.0,West,8.1,-,N/A,,Clear,280,2012-10-08 04:55:00
11:55 PM,43.0,26.1,51,29.83,10.0,West,8.1,-,N/A,,Clear,270,2012-10-08 05:55:00